TimeCDT,TemperatureF,Dew PointF,Humidity,Sea Level PressureIn,VisibilityMPH,Wind Direction,Wind SpeedMPH,Gust SpeedMPH,PrecipitationIn,Events,Conditions,WindDirDegrees,DateUTC
12:53 AM,91.0,64.0,41,29.97,10.0,SW,8.1,-,N/A,,Partly Cloudy,230,2012-07-28 05:53:00
1:53 AM,90.0,66.9,46,29.98,10.0,WSW,6.9,-,N/A,,Clear,240,2012-07-28 06:53:00
2:53 AM,86.0,66.9,53,29.99,10.0,Calm,Calm,-,N/A,,Clear,0,2012-07-28 07:53:00
3:53 AM,82.0,66.9,60,30.00,10.0,Calm,Calm,-,N/A,,Clear,0,2012-07-28 08:53:00
4:53 AM,81.0,66.0,60,30.00,10.0,Calm,Calm,-,N/A,,Clear,0,2012-07-28 09:53:00
5:53 AM,82.0,66.9,60,30.01,10.0,South,3.5,-,N/A,,Clear,190,2012-07-28 10:53:00
6:53 AM,82.0,66.9,60,30.03,10.0,Calm,Calm,-,N/A,,Clear,0,2012-07-28 11:53:00
7:53 AM,84.9,68.0,57,30.03,10.0,South,3.5,-,N/A,,Clear,190,2012-07-28 12:53:00
8:53 AM,89.1,69.1,52,30.04,10.0,Calm,Calm,-,N/A,,Clear,0,2012-07-28 13:53:00
9:53 AM,93.0,68.0,44,30.04,10.0,WSW,4.6,-,N/A,,Clear,250,2012-07-28 14:53:00
10:53 AM,96.1,68.0,40,30.04,10.0,Variable,3.5,-,N/A,,Clear,0,2012-07-28 15:53:00
11:53 AM,100.0,66.0,33,30.02,10.0,Calm,Calm,-,N/A,,Clear,0,2012-07-28 16:53:00
12:53 PM,102.0,63.0,28,30.01,10.0,West,8.1,-,N/A,,Partly Cloudy,280,2012-07-28 17:53:00
1:53 PM,105.1,59.0,22,29.99,10.0,Variable,3.5,-,N/A,,Partly Cloudy,0,2012-07-28 18:53:00
2:53 PM,105.1,57.0,20,29.97,10.0,South,3.5,-,N/A,,Partly Cloudy,170,2012-07-28 19:53:00
3:53 PM,107.1,55.0,18,29.95,10.0,Variable,4.6,-,N/A,,Scattered Clouds,0,2012-07-28 20:53:00
4:53 PM,106.0,55.0,19,29.93,10.0,South,9.2,-,N/A,,Clear,190,2012-07-28 21:53:00
5:53 PM,107.1,46.0,13,29.91,10.0,SSE,5.8,-,N/A,,Partly Cloudy,160,2012-07-28 22:53:00
6:53 PM,106.0,48.9,15,29.90,10.0,South,11.5,-,N/A,,Partly Cloudy,170,2012-07-28 23:53:00
7:53 PM,102.0,53.1,19,29.90,10.0,SE,11.5,-,N/A,,Partly Cloudy,140,2012-07-29 00:53:00
8:53 PM,97.0,54.0,23,29.91,10.0,SSE,6.9,-,N/A,,Partly Cloudy,150,2012-07-29 01:53:00
9:53 PM,97.0,55.0,24,29.93,10.0,South,9.2,-,N/A,,Partly Cloudy,170,2012-07-29 02:53:00
10:53 PM,95.0,57.0,28,29.94,10.0,South,11.5,-,N/A,,Clear,170,2012-07-29 03:53:00
11:53 PM,91.9,59.0,33,29.95,10.0,South,8.1,-,N/A,,Clear,170,2012-07-29 04:53:00